GEFSMA_850_meantemp_000.txt.gz
Temperature
13 13 12 12 12 12 12 12 12 12 13 13 13 13 13 13 12 12 11 11 12 12 11 11 12 12 12 12 12 12 12 12 12 12 12 12 12 12 12 12 12 12 12
12 12 12 12 12 12 12 12 12 12 12 12 12 12 12 12 12 11 11 11 11 11 11 11 12 12 12 12 11 11 11 11 11 11 11 11 11 12 12 12 12 12 12
12 12 12 12 12 12 12 12 12 12 12 12 11 11 11 11 11 11 10 10 10 10 11 11 11 11 12 11 11 11 11 10 10 10 10 11 10 10 11 11 11 11 11
11 11 11 12 12 12 12 12 11 11 10 10 10 10 10 10 10 10 10 10 10 10 11 11 11 11 11 11 11 11 10 10 10 10 10 10 10 10 10 10 11 11 11
12 12 12 12 12 11 11 11 10 9 9 9 9 9 9 9 9 9 9 10 10 10 10 10 10 10 10 10 10 10 10 10 9 8 8 8 9 9 9 9 9 9 10
12 12 12 11 11 10 10 9 8 8 7 7 8 9 9 8 8 9 10 10 10 10 10 10 10 10 10 10 10 10 9 8 7 7 7 6 6 6 7 7 8 8 8
12 11 11 10 10 9 8 8 7 7 7 7 7 8 9 8 9 9 9 9 9 9 9 9 9 9 9 8 8 7 7 6 5 5 5 5 5 5 5 6 6 7 7
11 11 10 9 9 8 8 7 7 7 7 6 6 6 6 7 8 7 7 7 7 7 7 7 7 7 7 6 6 6 6 5 4 4 4 4 4 4 5 5 5 5 6
11 10 9 9 8 8 7 6 6 6 6 6 5 4 3 3 3 5 5 5 5 5 5 5 5 5 4 4 5 5 4 3 3 3 2 2 3 3 3 3 4 4 4
10 9 9 8 8 7 6 6 6 5 5 5 5 4 3 2 2 2 2 3 3 3 4 4 4 3 3 3 3 3 2 2 2 1 1 1 2 2 2 3 3 3 4
9 9 8 8 7 6 6 5 5 5 5 4 4 3 3 2 1 0 -0 0 1 2 2 2 2 2 1 1 1 1 1 1 -0 -0 -0 -0 0 1 1 1 2 2 2
9 8 8 7 6 6 5 5 4 4 4 3 3 2 1 1 0 -0 -1 -1 -1 -1 -0 -0 0 0 -0 -1 -0 -0 -1 -2 -2 -2 -2 -1 -1 -1 -0 -0 1 1 1
8 8 7 6 6 5 4 4 4 4 3 3 2 2 1 1 -0 -1 -2 -2 -2 -2 -2 -2 -2 -1 -1 -2 -2 -2 -2 -3 -3 -3 -3 -2 -2 -2 -2 -1 -1 -0 -0
8 7 6 6 5 4 4 3 3 3 3 2 2 1 1 0 -1 -2 -2 -3 -3 -3 -3 -3 -3 -3 -3 -3 -3 -4 -4 -4 -4 -4 -4 -3 -3 -3 -3 -2 -2 -1 -1
7 6 6 5 4 4 3 3 3 2 2 2 1 0 -1 -1 -2 -2 -3 -3 -4 -4 -4 -4 -4 -4 -4 -4 -5 -5 -5 -5 -5 -5 -4 -4 -4 -4 -3 -3 -2 -2 -2
6 6 5 4 4 3 3 2 2 1 1 1 -0 -1 -2 -3 -3 -3 -4 -5 -5 -5 -5 -4 -5 -5 -5 -5 -5 -5 -6 -6 -6 -6 -5 -5 -5 -4 -3 -3 -3 -4 -3
5 5 4 4 3 2 2 1 1 0 0 -0 -1 -2 -3 -4 -5 -5 -5 -6 -6 -5 -5 -5 -5 -5 -6 -6 -6 -6 -7 -7 -7 -6 -6 -5 -5 -4 -4 -4 -4 -4 -4
4 4 3 3 2 1 1 1 -0 -0 -1 -2 -3 -4 -5 -5 -5 -6 -6 -6 -6 -6 -6 -6 -6 -6 -6 -6 -7 -7 -7 -7 -8 -7 -7 -6 -5 -5 -5 -5 -5 -4 -4
3 3 2 2 1 1 0 -0 -1 -1 -2 -3 -4 -5 -5 -6 -6 -7 -7 -6 -7 -7 -7 -7 -7 -7 -6 -7 -7 -7 -8 -8 -8 -8 -8 -7 -7 -6 -6 -6 -5 -5 -6
3 2 2 1 1 0 -0 -1 -2 -2 -3 -4 -5 -5 -6 -7 -7 -7 -7 -7 -7 -7 -7 -7 -7 -7 -7 -7 -8 -8 -9 -9 -8 -9 -8 -8 -8 -7 -7 -7 -7 -7 -6
2 1 1 1 0 -1 -1 -2 -2 -4 -4 -5 -5 -6 -7 -7 -7 -7 -7 -7 -7 -7 -7 -7 -8 -7 -8 -8 -9 -9 -9 -9 -9 -9 -9 -9 -9 -9 -9 -8 -8 -8 -7
1 1 0 -0 -1 -1 -2 -2 -4 -5 -5 -6 -6 -7 -7 -7 -7 -8 -8 -7 -7 -7 -7 -7 -8 -8 -9 -9 -9 -9 -9 -9 -10 -9 -9 -9 -9 -9 -9 -9 -9 -8 -7
0 0 -0 -1 -2 -2 -3 -4 -5 -6 -6 -7 -7 -8 -8 -8 -8 -8 -8 -8 -8 -8 -8 -8 -9 -9 -9 -9 -9 -10 -10 -10 -10 -10 -10 -10 -10 -10 -9 -9 -9 -8 -8
-0 -1 -1 -2 -2 -3 -4 -5 -6 -7 -7 -8 -8 -8 -8 -8 -8 -8 -8 -8 -8 -8 -8 -9 -9 -9 -9 -10 -10 -10 -10 -10 -10 -10 -10 -10 -10 -10 -9 -9 -9 -8 -8
-1 -1 -2 -3 -3 -4 -5 -6 -8 -8 -8 -8 -8 -8 -8 -8 -8 -8 -8 -8 -9 -9 -9 -9 -10 -10 -10 -10 -10 -10 -10 -11 -11 -11 -10 -11 -11 -10 -10 -9 -8 -8 -8
-2 -3 -3 -3 -4 -5 -6 -7 -8 -8 -8 -8 -8 -8 -8 -8 -8 -8 -9 -9 -9 -9 -10 -10 -10 -10 -10 -10 -11 -11 -11 -11 -11 -11 -10 -10 -10 -10 -10 -9 -9 -9 -9

GEFSMA_850_meantemp_006.txt.gz
Temperature
12 12 11 11 11 11 11 11 11 12 12 12 12 12 12 12 11 11 11 10 10 10 10 10 10 10 11 11 11 11 11 11 11 11 11 11 11 12 12 12 12 12 12
12 11 11 11 11 11 11 11 12 12 12 12 12 11 11 10 10 10 9 9 9 10 10 10 10 10 10 10 10 10 11 11 11 11 11 11 11 11 11 12 12 12 12
11 11 11 11 11 11 12 12 12 12 12 11 11 10 10 10 9 9 9 9 9 9 9 10 10 10 10 10 10 10 10 11 11 10 10 10 10 10 10 11 11 11 11
11 11 11 11 11 12 11 11 11 11 11 10 10 10 10 10 9 9 8 9 9 9 9 9 9 9 10 10 10 10 10 10 10 10 9 9 9 9 9 9 9 10 10
11 11 11 11 11 11 11 10 10 9 9 9 9 10 10 10 9 8 8 8 9 9 9 9 8 9 9 9 9 9 9 9 9 8 7 7 7 7 7 7 7 7 8
11 11 11 11 11 10 10 10 9 8 8 8 9 9 9 9 8 8 8 8 8 8 8 8 8 8 8 8 8 8 7 7 7 6 5 5 5 4 4 4 5 5 5
11 11 11 11 10 10 10 9 8 8 7 7 8 8 9 8 8 8 7 7 8 8 8 7 7 7 7 7 7 6 6 6 5 4 4 4 3 3 3 3 3 4 4
11 11 10 10 10 9 9 8 7 7 6 6 5 6 6 7 7 7 8 8 7 7 6 6 6 6 6 6 6 6 5 5 3 2 2 2 2 2 2 2 2 2 3
11 10 10 10 9 9 8 8 7 6 5 5 4 3 3 3 3 4 5 5 5 5 5 5 5 5 5 5 5 5 4 4 2 1 1 1 1 1 1 1 1 1 2
10 10 9 9 9 8 7 7 6 5 4 4 4 3 3 2 1 1 3 4 4 4 4 4 4 4 4 4 3 3 2 1 -0 -0 -0 -0 -0 0 0 0 0 1 1
10 9 9 8 8 7 7 6 5 4 4 3 3 3 2 2 1 -1 -1 1 3 3 3 3 3 3 2 2 1 -0 -1 -2 -2 -2 -1 -1 -1 -1 -1 -1 -0 -0 -0
9 9 8 8 7 6 6 5 4 4 3 3 2 2 1 1 0 -2 -3 -2 -2 0 1 2 1 1 0 -1 -2 -2 -3 -3 -3 -3 -3 -3 -2 -2 -2 -2 -2 -1 -1
9 8 7 7 6 6 5 4 4 3 3 3 2 2 1 0 -1 -2 -2 -3 -3 -2 -2 -2 -2 -2 -2 -3 -4 -4 -4 -4 -4 -4 -4 -4 -3 -3 -3 -3 -3 -3 -2
8 7 7 6 5 5 4 4 3 3 3 2 2 1 1 0 -1 -2 -3 -4 -5 -4 -4 -4 -4 -4 -5 -6 -6 -6 -6 -6 -6 -5 -5 -5 -5 -4 -5 -4 -4 -4 -4
7 7 6 5 5 4 4 3 3 2 2 2 1 1 0 -0 -1 -2 -3 -4 -6 -7 -6 -6 -6 -7 -7 -7 -7 -7 -7 -7 -7 -6 -6 -6 -6 -6 -6 -5 -5 -5 -5
7 6 5 5 4 3 3 2 2 2 2 1 1 1 0 -1 -2 -3 -5 -5 -6 -7 -7 -7 -7 -7 -7 -7 -7 -7 -7 -7 -7 -7 -7 -7 -7 -6 -6 -6 -6 -6 -6
6 5 5 4 3 3 2 2 1 1 1 1 1 0 -1 -2 -4 -5 -6 -7 -7 -7 -8 -8 -7 -7 -7 -7 -7 -7 -8 -8 -8 -8 -8 -7 -7 -7 -7 -7 -7 -6 -6
5 5 4 3 2 2 1 1 1 1 1 0 -0 -1 -2 -4 -5 -6 -7 -7 -8 -8 -8 -8 -8 -8 -8 -7 -7 -8 -8 -8 -8 -8 -8 -8 -8 -8 -8 -7 -7 -7 -7
5 4 3 2 2 1 1 1 1 0 -0 -1 -2 -3 -4 -5 -6 -7 -7 -8 -8 -8 -8 -8 -8 -8 -8 -8 -8 -8 -8 -9 -9 -9 -9 -9 -9 -9 -8 -8 -8 -8 -8
4 3 2 1 1 1 1 0 -0 -1 -1 -2 -4 -5 -5 -6 -7 -8 -8 -8 -8 -8 -8 -8 -8 -8 -8 -8 -9 -9 -9 -9 -10 -10 -10 -10 -10 -9 -9 -9 -9 -9 -9
2 2 1 1 0 0 -0 -1 -2 -3 -3 -4 -5 -6 -7 -7 -8 -8 -8 -8 -8 -8 -8 -8 -8 -9 -9 -9 -9 -10 -10 -10 -10 -10 -10 -10 -10 -10 -10 -10 -10 -10 -9
1 1 0 0 -0 -0 -1 -1 -3 -5 -5 -6 -7 -7 -8 -8 -8 -8 -8 -8 -8 -8 -8 -9 -9 -9 -10 -10 -10 -10 -10 -10 -10 -10 -10 -11 -11 -11 -11 -10 -10 -10 -9
0 -0 -0 -0 -1 -1 -2 -2 -4 -6 -6 -7 -7 -8 -8 -8 -8 -8 -8 -8 -8 -9 -9 -10 -10 -10 -10 -10 -10 -10 -10 -11 -11 -11 -11 -11 -11 -11 -11 -10 -10 -10 -9
-0 -1 -1 -1 -1 -2 -2 -3 -4 -6 -7 -8 -8 -8 -8 -9 -9 -9 -8 -8 -9 -9 -10 -10 -10 -10 -10 -10 -11 -11 -11 -11 -11 -11 -11 -11 -11 -11 -11 -10 -10 -10 -10
-1 -1 -1 -2 -2 -3 -3 -4 -6 -7 -8 -8 -8 -8 -9 -9 -9 -9 -9 -9 -10 -10 -10 -10 -10 -10 -10 -10 -10 -11 -11 -11 -11 -11 -11 -11 -11 -11 -11 -10 -9 -10 -9
-1 -2 -2 -3 -3 -4 -4 -6 -7 -8 -8 -8 -9 -9 -9 -9 -9 -9 -9 -10 -10 -10 -10 -10 -10 -9 -9 -9 -9 -10 -11 -12 -12 -12 -10 -11 -11 -11 -11 -10 -9 -9 -9

GEFSMA_850_meantemp_012.txt.gz
Temperature
13 12 12 12 11 11 11 11 11 12 12 12 12 12 11 10 10 9 9 9 9 9 9 9 9 9 9 9 9 10 10 10 10 10 11 11 11 11 11 12 12 12 12
12 11 11 11 11 11 11 11 12 12 11 11 11 11 10 9 9 8 8 8 9 9 9 9 9 9 9 10 10 10 10 10 10 10 10 10 10 10 11 11 11 11 11
11 11 11 11 11 11 11 12 11 11 11 10 10 10 9 9 8 8 8 8 8 8 8 9 9 9 9 9 9 9 9 9 10 10 10 10 9 9 9 10 10 10 10
12 11 11 11 11 11 11 11 11 11 10 10 9 9 9 9 7 7 7 7 8 8 8 8 8 8 9 9 9 9 9 9 9 9 9 9 8 8 8 8 8 8 8
12 11 11 11 11 11 11 11 11 10 10 10 9 9 9 7 7 7 6 7 7 7 8 8 8 8 8 8 8 8 8 8 8 8 8 8 8 7 6 6 6 6 6
12 11 11 11 11 11 11 11 10 10 10 9 9 9 8 7 6 6 6 6 7 7 7 7 7 7 7 7 7 7 7 7 7 7 7 7 6 5 5 5 5 5 5
11 11 11 11 11 11 10 10 10 9 9 9 8 7 7 7 6 6 6 6 6 6 7 6 6 6 6 7 7 6 6 6 6 5 5 5 4 4 4 4 4 4 4
11 11 11 11 11 10 10 10 9 9 8 8 7 6 6 7 5 6 6 6 6 5 6 6 6 6 5 5 5 5 5 5 5 5 4 3 3 2 3 3 3 3 3
11 11 11 11 10 10 9 9 8 8 7 6 6 5 5 6 5 5 5 5 5 5 5 5 5 5 5 4 4 4 4 4 4 3 2 1 1 1 2 2 2 2 2
11 11 10 10 10 9 9 8 8 7 6 5 5 5 4 3 2 3 3 3 2 3 3 3 4 4 4 4 3 3 3 3 2 1 0 -0 0 0 1 1 1 1 1
10 10 10 10 9 9 8 8 7 6 6 5 4 4 3 2 2 1 2 2 2 1 0 0 1 1 1 1 0 -0 0 0 -0 -1 -2 -2 -1 -1 -1 -0 -0 0 0
10 10 10 9 9 8 8 7 6 6 5 4 4 3 2 1 1 0 0 1 0 0 -1 -1 -1 -1 -1 -1 -2 -3 -2 -2 -3 -4 -4 -3 -3 -2 -2 -2 -2 -1 -1
10 10 9 9 8 7 7 6 6 5 4 3 3 2 2 1 1 -0 -1 -1 -1 -1 -1 -1 -2 -2 -3 -3 -4 -4 -4 -4 -5 -5 -5 -4 -4 -4 -4 -4 -3 -3 -3
10 9 9 8 7 7 6 5 5 4 3 3 2 2 1 1 0 -1 -2 -2 -2 -1 -1 -1 -2 -3 -4 -5 -5 -6 -6 -6 -6 -6 -6 -5 -5 -5 -5 -5 -5 -4 -4
9 9 8 7 6 6 5 5 4 3 3 2 1 1 0 0 -0 -1 -2 -3 -3 -3 -2 -2 -3 -4 -5 -5 -6 -6 -6 -6 -6 -6 -6 -6 -6 -6 -6 -6 -5 -5 -5
9 8 7 6 6 5 4 4 3 3 2 1 1 0 -0 -1 -1 -1 -3 -4 -4 -5 -4 -4 -4 -5 -5 -6 -6 -6 -6 -7 -7 -7 -7 -7 -7 -7 -7 -6 -6 -6 -6
8 7 6 6 5 4 4 3 2 2 1 1 0 -0 -1 -1 -2 -3 -4 -4 -5 -5 -5 -5 -5 -6 -6 -6 -6 -6 -7 -7 -7 -7 -7 -7 -7 -7 -7 -7 -7 -7 -6
7 6 5 5 4 3 3 2 1 1 1 0 -1 -1 -2 -2 -3 -4 -5 -6 -6 -6 -6 -6 -6 -6 -6 -7 -7 -7 -7 -7 -7 -7 -7 -8 -8 -8 -8 -8 -7 -7 -7
6 5 4 4 3 2 2 1 1 0 -0 -1 -2 -2 -3 -4 -5 -5 -6 -6 -7 -7 -7 -7 -7 -7 -7 -7 -7 -7 -7 -7 -8 -8 -8 -8 -8 -8 -8 -8 -8 -8 -8
5 4 3 3 2 1 1 0 0 -0 -1 -2 -2 -3 -4 -5 -6 -7 -7 -7 -7 -7 -7 -7 -7 -7 -7 -7 -7 -7 -7 -8 -8 -8 -8 -8 -8 -8 -8 -8 -8 -8 -8
4 3 2 2 1 1 0 -0 -1 -2 -2 -3 -3 -4 -6 -6 -6 -8 -8 -8 -8 -8 -8 -7 -7 -7 -8 -7 -7 -8 -8 -9 -9 -9 -8 -8 -8 -8 -8 -8 -8 -8 -9
3 2 1 1 0 -0 -0 -1 -1 -2 -3 -4 -4 -5 -6 -7 -8 -8 -8 -8 -8 -8 -8 -8 -8 -8 -8 -8 -8 -9 -9 -9 -9 -8 -9 -8 -8 -8 -8 -8 -8 -8 -9
2 1 0 -0 -0 -1 -1 -1 -2 -2 -4 -4 -5 -6 -7 -8 -8 -8 -9 -8 -8 -8 -8 -8 -9 -9 -9 -9 -9 -9 -9 -9 -9 -9 -9 -9 -8 -8 -8 -8 -8 -8 -8
0 -0 -1 -1 -1 -1 -1 -2 -2 -3 -4 -5 -7 -7 -8 -8 -8 -9 -9 -8 -8 -9 -9 -9 -9 -10 -10 -9 -9 -9 -10 -10 -10 -9 -9 -9 -9 -9 -8 -8 -7 -7 -7
-1 -1 -1 -1 -1 -2 -2 -3 -3 -4 -6 -7 -8 -8 -8 -9 -9 -9 -9 -9 -9 -9 -9 -10 -10 -10 -9 -9 -10 -10 -10 -10 -10 -9 -9 -9 -9 -9 -9 -8 -6 -6 -7
-1 -1 -1 -2 -2 -2 -3 -3 -4 -6 -7 -8 -8 -8 -9 -9 -9 -9 -9 -9 -9 -10 -10 -10 -9 -9 -9 -9 -9 -10 -10 -10 -10 -10 -9 -10 -10 -10 -10 -8 -7 -7 -6

GEFSMA_850_meantemp_018.txt.gz
Temperature
14 13 13 13 12 12 12 12 12 13 13 13 13 12 12 11 10 10 10 10 9 9 9 9 9 9 9 9 9 9 10 10 10 10 10 10 10 10 10 10 11 11 11
13 13 13 12 12 12 12 12 13 13 13 13 12 12 11 10 9 9 9 9 9 9 9 9 9 9 9 9 9 9 10 10 10 10 10 10 10 10 10 10 10 10 11
13 13 12 12 12 12 12 12 12 13 13 12 12 11 11 10 9 9 8 8 8 8 8 8 8 8 9 9 9 9 9 9 10 10 10 10 10 10 10 10 10 10 10
13 12 12 12 11 11 12 12 12 12 12 12 12 11 10 10 9 8 8 8 8 8 8 8 8 8 8 8 8 8 9 9 9 9 9 9 9 10 9 9 9 9 9
13 12 12 11 11 11 12 12 12 12 12 12 11 11 10 9 8 8 8 7 7 7 7 7 7 7 8 8 8 8 8 8 8 7 7 7 8 8 8 8 7 7 6
13 12 12 11 11 11 11 11 11 11 11 11 11 11 10 9 8 8 7 7 7 7 7 7 7 7 7 7 7 7 7 6 6 6 6 5 5 6 6 6 6 5 5
13 12 12 11 11 11 11 11 11 11 10 10 11 10 9 8 8 7 7 7 7 6 6 6 6 6 6 6 6 6 6 6 5 5 5 5 5 5 4 4 4 4 4
12 12 12 12 11 11 11 11 10 10 10 10 10 9 8 8 7 7 7 7 6 6 5 5 5 6 5 5 6 5 5 5 5 4 3 3 3 3 3 2 2 3 3
12 12 12 11 11 11 11 10 10 10 9 9 9 8 8 7 7 7 6 6 5 5 5 4 4 4 4 4 4 4 3 3 3 1 1 1 1 1 1 1 1 1 2
12 11 11 11 11 11 10 10 10 9 9 8 8 7 7 6 6 6 5 5 4 4 4 4 3 3 3 3 2 2 2 1 0 -1 -1 -1 -1 -1 -0 -0 0 0 1
11 11 11 11 11 11 10 10 9 9 8 7 7 6 6 5 4 3 3 4 4 3 3 3 3 2 2 1 1 0 -0 -1 -2 -2 -2 -2 -2 -1 -1 -1 -1 -1 -1
11 11 10 10 10 10 10 9 9 8 7 7 6 6 5 4 3 2 2 2 2 3 2 2 2 1 1 0 -1 -1 -2 -3 -3 -3 -3 -3 -3 -2 -2 -2 -2 -2 -2
11 10 10 10 10 10 9 9 8 8 7 6 6 5 4 3 3 2 1 1 1 2 2 1 0 0 0 -0 -1 -1 -2 -3 -4 -4 -4 -4 -4 -4 -4 -4 -4 -3 -3
11 10 10 9 9 9 9 8 8 7 6 5 5 4 3 3 2 2 1 -0 -1 -1 -1 -0 -0 -1 -1 -1 -2 -2 -3 -4 -5 -5 -5 -4 -5 -5 -5 -5 -5 -4 -4
11 10 9 9 9 9 8 7 7 6 5 5 4 3 2 2 1 1 0 -1 -2 -3 -3 -2 -3 -3 -3 -3 -3 -4 -4 -5 -5 -5 -5 -5 -5 -5 -5 -5 -5 -5 -5
11 10 9 9 8 8 7 7 6 5 5 4 3 2 2 2 1 0 -1 -1 -3 -4 -4 -4 -4 -4 -5 -5 -5 -5 -6 -6 -6 -6 -6 -6 -6 -6 -6 -6 -6 -6 -5
10 9 9 8 8 7 7 6 5 5 4 3 2 1 1 0 -0 -0 -1 -2 -3 -4 -5 -5 -5 -6 -6 -6 -6 -6 -6 -6 -6 -7 -6 -6 -6 -6 -6 -6 -6 -6 -6
9 8 8 8 7 7 6 5 4 3 2 2 1 0 -0 -1 -1 -2 -3 -4 -5 -5 -6 -6 -6 -7 -7 -7 -7 -7 -7 -7 -7 -7 -7 -7 -7 -7 -7 -7 -6 -6 -6
8 8 7 7 6 6 5 4 3 2 2 1 0 -0 -1 -2 -2 -3 -4 -5 -6 -6 -7 -7 -7 -7 -7 -7 -7 -7 -7 -7 -7 -7 -7 -7 -7 -7 -7 -7 -7 -7 -7
8 7 7 6 5 4 4 3 2 2 1 1 -0 -1 -2 -3 -4 -5 -5 -6 -7 -7 -8 -8 -8 -8 -8 -7 -7 -8 -8 -8 -8 -8 -8 -7 -7 -7 -7 -7 -7 -7 -7
7 7 6 5 4 4 3 2 1 1 0 0 -0 -1 -3 -4 -5 -6 -6 -7 -7 -8 -8 -8 -8 -8 -8 -8 -8 -8 -8 -9 -8 -8 -8 -7 -7 -7 -6 -6 -7 -7 -7
6 5 5 4 3 3 2 1 1 0 -0 -0 -1 -2 -3 -4 -5 -6 -7 -7 -8 -8 -8 -8 -8 -8 -8 -8 -9 -9 -9 -9 -9 -8 -8 -8 -7 -7 -6 -7 -7 -7 -7
5 4 4 3 2 2 1 0 -0 -0 -1 -1 -2 -4 -5 -6 -7 -7 -8 -8 -8 -8 -8 -8 -9 -9 -9 -9 -9 -9 -9 -9 -9 -8 -9 -8 -7 -8 -7 -7 -7 -7 -7
4 3 2 2 1 1 0 -0 -1 -1 -2 -2 -4 -6 -6 -7 -7 -8 -8 -8 -8 -8 -9 -9 -9 -9 -9 -9 -9 -9 -9 -9 -8 -8 -8 -9 -8 -8 -8 -7 -7 -6 -6
3 2 1 1 0 -0 -1 -1 -2 -2 -3 -4 -6 -7 -7 -8 -8 -8 -8 -9 -9 -8 -9 -9 -9 -9 -9 -9 -9 -9 -9 -9 -9 -9 -8 -9 -9 -9 -8 -7 -6 -6 -7
1 1 0 -0 -1 -1 -2 -3 -3 -4 -5 -6 -6 -7 -7 -8 -8 -8 -9 -9 -9 -9 -9 -9 -8 -8 -8 -8 -8 -9 -10 -10 -10 -10 -8 -9 -10 -10 -10 -8 -7 -6 -6

GEFSMA_850_meantemp_024.txt.gz
Temperature
15 14 14 14 13 13 13 13 13 13 13 13 13 13 13 12 11 10 10 10 9 9 9 8 8 8 9 9 8 9 9 9 9 9 10 10 10 10 10 10 10 10 10
15 14 13 13 13 13 12 12 12 12 13 13 13 13 12 12 11 10 10 9 9 9 8 8 8 8 8 8 8 8 8 9 9 9 9 9 9 10 10 10 10 10 10
14 13 13 13 13 12 12 12 12 13 13 13 13 12 12 11 11 10 9 9 9 8 8 8 8 8 8 8 7 7 7 8 8 8 8 8 8 8 8 8 8 9 9
13 13 13 13 12 12 11 12 12 12 13 13 12 12 11 11 10 9 9 8 8 8 8 8 8 8 7 7 7 6 6 6 7 7 7 7 7 7 7 7 7 7 7
13 13 13 12 12 11 11 11 12 12 12 12 12 12 11 10 9 9 8 8 8 8 8 7 7 7 7 7 7 7 6 5 5 5 5 5 5 5 5 5 5 5 5
13 13 12 12 12 11 11 11 12 12 12 12 12 11 10 9 9 8 8 7 7 7 7 7 6 6 6 6 6 6 6 4 4 4 3 3 3 3 3 3 4 4 4
13 13 12 12 11 11 11 11 12 12 11 11 11 11 10 9 8 8 8 7 7 6 6 6 6 5 5 5 5 5 5 4 3 3 2 2 2 2 2 2 2 2 2
13 13 12 12 12 11 11 11 11 11 11 11 11 11 10 9 8 8 7 7 7 6 6 5 5 5 5 5 4 4 4 4 3 2 1 1 1 1 1 1 1 2 2
13 13 13 12 12 11 11 11 11 11 11 11 11 10 10 10 9 8 7 7 6 6 5 5 4 4 4 4 4 4 3 3 2 1 0 0 0 0 0 0 1 1 1
14 13 13 12 12 11 11 11 11 11 11 11 10 10 9 9 9 8 7 7 6 6 5 5 4 4 4 4 3 3 2 1 0 -0 -0 -0 -0 -0 -0 -0 0 0 0
14 13 13 12 12 11 11 11 11 11 10 10 10 9 9 8 8 7 7 6 6 5 5 4 4 4 3 2 2 2 1 0 -1 -1 -1 -1 -1 -1 -1 -1 -1 -1 -1
13 13 12 12 12 11 11 11 10 10 10 10 9 9 8 7 7 6 5 5 4 5 4 4 4 3 2 2 1 0 -0 -1 -2 -2 -2 -2 -2 -2 -2 -2 -2 -2 -2
13 13 12 12 11 11 11 10 10 10 9 9 9 8 7 7 6 5 4 3 2 3 3 3 2 1 1 0 -0 -1 -1 -2 -2 -3 -4 -3 -3 -3 -4 -4 -4 -3 -3
14 13 12 11 11 10 10 9 9 9 8 8 8 7 7 6 5 4 3 2 1 1 1 2 1 1 -1 -2 -2 -2 -2 -3 -3 -4 -4 -5 -5 -5 -5 -5 -5 -4 -4
13 12 11 11 10 9 9 9 8 8 8 7 7 6 6 5 4 3 2 1 -0 -2 -2 -1 -0 -1 -2 -2 -3 -4 -4 -4 -4 -5 -5 -6 -6 -6 -6 -5 -5 -5 -5
12 11 11 10 9 8 8 8 8 7 7 7 6 6 5 4 3 2 1 0 -1 -2 -3 -3 -3 -3 -3 -3 -4 -5 -5 -5 -5 -5 -6 -6 -6 -6 -6 -6 -6 -5 -5
11 10 10 8 7 7 7 7 7 6 6 6 5 4 4 3 2 1 0 -0 -1 -2 -3 -3 -4 -4 -4 -4 -4 -5 -5 -6 -6 -6 -6 -7 -7 -7 -7 -6 -6 -6 -6
10 9 8 7 6 6 6 6 6 6 5 5 4 3 3 2 1 0 -0 -1 -2 -3 -4 -5 -5 -5 -6 -6 -6 -6 -6 -7 -7 -6 -6 -7 -7 -7 -7 -6 -6 -6 -6
9 8 7 6 5 6 6 6 5 5 4 4 3 2 1 1 0 -0 -1 -2 -3 -4 -5 -6 -6 -7 -7 -7 -7 -7 -7 -7 -7 -7 -7 -6 -6 -6 -6 -6 -6 -6 -6
7 6 5 5 5 5 5 4 4 4 3 2 2 1 1 0 -0 -1 -2 -3 -4 -5 -6 -7 -7 -7 -8 -7 -8 -8 -8 -7 -7 -6 -6 -6 -6 -6 -6 -6 -6 -6 -6
5 4 4 4 4 4 3 3 3 2 2 1 1 0 0 -0 -1 -3 -4 -5 -6 -6 -7 -8 -8 -8 -8 -8 -8 -9 -9 -8 -7 -6 -6 -6 -6 -6 -5 -5 -6 -6 -5
3 3 3 3 2 2 2 2 2 1 1 1 0 0 -0 -1 -2 -4 -5 -6 -7 -7 -8 -8 -8 -9 -9 -8 -9 -9 -9 -9 -9 -8 -8 -8 -7 -6 -6 -6 -6 -6 -6
2 2 2 2 2 1 1 1 1 0 0 0 -0 -1 -1 -2 -4 -5 -6 -6 -7 -8 -8 -9 -9 -9 -9 -9 -9 -9 -9 -9 -9 -8 -8 -8 -7 -6 -6 -6 -6 -6 -6
2 1 1 1 1 0 0 -0 -0 -0 -0 -1 -1 -2 -3 -4 -4 -6 -7 -8 -8 -8 -8 -9 -9 -9 -9 -9 -9 -9 -9 -9 -9 -8 -8 -8 -7 -7 -7 -7 -6 -6 -6
1 1 0 0 -0 -0 -1 -1 -1 -1 -1 -2 -2 -4 -4 -5 -5 -7 -8 -9 -9 -8 -8 -9 -9 -9 -8 -8 -9 -9 -9 -9 -10 -8 -8 -9 -7 -8 -7 -7 -6 -6 -6
0 -0 -1 -1 -1 -1 -1 -2 -2 -2 -3 -3 -3 -4 -5 -6 -8 -9 -9 -9 -9 -9 -9 -8 -8 -7 -7 -7 -7 -8 -8 -9 -10 -10 -8 -9 -9 -10 -10 -8 -7 -6 -6